When you browse on this site, cookies collect data to enhance your experience and personalize the content and advertising you see.
Visit our Privacy Policy to learn more. By continuing to use the site, you agree to this use of cookies and data.
  • In Hungary
  • List of Countries
  • For 7 days
  • Water Temperature
  • Weather Map
  • News
  • Weather Widgets
  • user-avatar
    Login

    Hourly Weather Krai

    Today, 2 April, Thursday

    Time Temperature Precipitation Wind Pressure Humidity
    00:00 -1°C° 0 mm 4 mps 743 mmHg 80%
    01:00 -2°C° 0 mm 4 mps 743 mmHg 81%
    02:00 -1°C° 0 mm 3 mps 743 mmHg 82%
    03:00 -1°C° 0 mm 3 mps 742 mmHg 83%
    04:00 -3°C° 0 mm 4 mps 742 mmHg 84%
    05:00 -3°C° 0 mm 4 mps 742 mmHg 84%
    06:00 -2°C° 0 mm 4 mps 742 mmHg 80%
    07:00 -1°C° 0 mm 5 mps 742 mmHg 76%
    08:00 -1°C° 0 mm 6 mps 742 mmHg 73%
    09:00 +1°C° 0 mm 6 mps 741 mmHg 70%
    10:00 +2°C° 0 mm 6 mps 741 mmHg 67%
    11:00 +3°C° 0 mm 6 mps 741 mmHg 63%
    12:00 +4°C° 0 mm 6 mps 741 mmHg 62%
    13:00 +4°C° 0 mm 6 mps 741 mmHg 61%
    14:00 +6°C° 0 mm 5 mps 741 mmHg 60%
    15:00 +6°C° 0.1 mm 5 mps 741 mmHg 60%
    16:00 +6°C° 0.1 mm 5 mps 741 mmHg 59%
    17:00 +6°C° 0.1 mm 5 mps 740 mmHg 59%
    18:00 +5°C° 0 mm 5 mps 740 mmHg 65%
    19:00 +4°C° 0 mm 4 mps 740 mmHg 70%
    20:00 +2°C° 0 mm 3 mps 741 mmHg 76%
    21:00 +2°C° 0 mm 3 mps 740 mmHg 78%
    22:00 +2°C° 0 mm 3 mps 740 mmHg 80%
    23:00 0°C° 0 mm 4 mps 740 mmHg 82%

    Tomorrow, 3 April, Friday

    Time Temperature Precipitation Wind Pressure Humidity
    00:00 0°C° 0 mm 4 mps 740 mmHg 82%
    01:00 0°C° 0 mm 4 mps 739 mmHg 82%
    02:00 0°C° 0 mm 4 mps 739 mmHg 83%
    03:00 0°C° 0 mm 4 mps 739 mmHg 80%
    04:00 0°C° 0 mm 5 mps 738 mmHg 77%
    05:00 0°C° 0 mm 5 mps 738 mmHg 75%
    06:00 +1°C° 0 mm 6 mps 738 mmHg 71%
    07:00 +2°C° 0 mm 6 mps 738 mmHg 66%
    08:00 +2°C° 0 mm 7 mps 738 mmHg 62%
    09:00 +3°C° 0 mm 7 mps 738 mmHg 59%
    10:00 +5°C° 0 mm 7 mps 738 mmHg 57%
    11:00 +6°C° 0 mm 8 mps 738 mmHg 54%
    12:00 +6°C° 0 mm 8 mps 738 mmHg 56%
    13:00 +6°C° 0 mm 7 mps 738 mmHg 57%
    14:00 +6°C° 0 mm 7 mps 738 mmHg 59%
    15:00 +6°C° 0.2 mm 7 mps 738 mmHg 58%
    16:00 +5°C° 0.2 mm 7 mps 739 mmHg 58%
    17:00 +5°C° 0.2 mm 6 mps 739 mmHg 57%
    18:00 +5°C° 0 mm 5 mps 740 mmHg 60%
    19:00 +4°C° 0 mm 4 mps 740 mmHg 64%
    20:00 +3°C° 0 mm 3 mps 741 mmHg 67%
    21:00 +2°C° 0 mm 3 mps 742 mmHg 69%
    22:00 +2°C° 0 mm 3 mps 742 mmHg 72%
    23:00 +1°C° 0 mm 4 mps 743 mmHg 75%

    Day after tomorrow, 4 April, Saturday

    Time Temperature Precipitation Wind Pressure Humidity
    00:00 0°C° 0 mm 4 mps 743 mmHg 74%
    01:00 0°C° 0 mm 4 mps 744 mmHg 73%
    02:00 -1°C° 0 mm 4 mps 745 mmHg 73%
    03:00 -1°C° 0 mm 4 mps 745 mmHg 73%
    04:00 -2°C° 0 mm 4 mps 746 mmHg 74%
    05:00 -2°C° 0 mm 4 mps 746 mmHg 75%
    06:00 -1°C° 0 mm 4 mps 747 mmHg 70%
    07:00 0°C° 0 mm 4 mps 748 mmHg 66%
    08:00 0°C° 0 mm 4 mps 748 mmHg 61%
    09:00 +2°C° 0 mm 5 mps 749 mmHg 54%
    10:00 +3°C° 0 mm 5 mps 749 mmHg 47%
    11:00 +6°C° 0 mm 5 mps 749 mmHg 40%
    12:00 +6°C° 0 mm 5 mps 750 mmHg 40%
    13:00 +6°C° 0 mm 5 mps 750 mmHg 39%
    14:00 +7°C° 0 mm 5 mps 750 mmHg 39%
    15:00 +6°C° 0.1 mm 5 mps 751 mmHg 41%
    16:00 +6°C° 0.1 mm 5 mps 751 mmHg 43%
    17:00 +6°C° 0.1 mm 5 mps 751 mmHg 44%
    18:00 +4°C° 0 mm 4 mps 752 mmHg 50%
    19:00 +3°C° 0 mm 4 mps 752 mmHg 56%
    20:00 +2°C° 0 mm 3 mps 753 mmHg 62%
    21:00 +2°C° 0 mm 3 mps 754 mmHg 64%
    22:00 0°C° 0 mm 4 mps 754 mmHg 65%
    23:00 -1°C° 0 mm 4 mps 755 mmHg 66%

    5 April, Sunday

    Time Temperature Precipitation Wind Pressure Humidity
    00:00 -1°C° 0 mm 4 mps 756 mmHg 67%
    01:00 -2°C° 0 mm 4 mps 756 mmHg 69%
    02:00 -2°C° 0 mm 4 mps 757 mmHg 70%
    03:00 -2°C° 0 mm 3 mps 758 mmHg 72%
    04:00 -2°C° 0 mm 3 mps 758 mmHg 74%
    05:00 -4°C° 0 mm 3 mps 759 mmHg 75%
    06:00 -2°C° 0 mm 3 mps 760 mmHg 65%
    07:00 -1°C° 0 mm 3 mps 760 mmHg 55%
    08:00 -1°C° 0 mm 4 mps 761 mmHg 44%
    09:00 +2°C° 0 mm 3 mps 762 mmHg 39%
    10:00 +3°C° 0 mm 3 mps 762 mmHg 33%
    11:00 +4°C° 0 mm 3 mps 762 mmHg 28%
    12:00 +5°C° 0 mm 3 mps 762 mmHg 26%
    13:00 +7°C° 0 mm 2 mps 762 mmHg 25%
    14:00 +7°C° 0 mm 2 mps 762 mmHg 24%
    15:00 +7°C° 0 mm 2 mps 762 mmHg 25%
    16:00 +7°C° 0 mm 2 mps 762 mmHg 26%
    17:00 +7°C° 0 mm 2 mps 762 mmHg 27%
    18:00 +6°C° 0 mm 2 mps 762 mmHg 32%
    19:00 +5°C° 0 mm 1 mps 762 mmHg 38%
    20:00 +3°C° 0 mm 1 mps 763 mmHg 43%
    21:00 +3°C° 0 mm 1 mps 763 mmHg 44%
    22:00 +2°C° 0 mm 1 mps 763 mmHg 46%
    23:00 +2°C° 0 mm 1 mps 763 mmHg 47%

    6 April, Monday

    Time Temperature Precipitation Wind Pressure Humidity
    00:00 +2°C° 0 mm 1 mps 763 mmHg 47%
    01:00 +2°C° 0 mm 1 mps 764 mmHg 47%
    02:00 +1°C° 0 mm 1 mps 764 mmHg 47%
    03:00 +1°C° 0 mm 1 mps 764 mmHg 47%
    04:00 -1°C° 0 mm 2 mps 764 mmHg 48%
    05:00 -1°C° 0 mm 2 mps 764 mmHg 48%
    06:00 +1°C° 0 mm 2 mps 764 mmHg 45%
    07:00 +3°C° 0 mm 2 mps 764 mmHg 42%
    08:00 +3°C° 0 mm 3 mps 764 mmHg 39%
    09:00 +5°C° 0 mm 3 mps 764 mmHg 36%
    10:00 +7°C° 0 mm 3 mps 764 mmHg 33%
    11:00 +8°C° 0 mm 4 mps 764 mmHg 30%
    12:00 +10°C° 0 mm 4 mps 763 mmHg 30%
    13:00 +10°C° 0 mm 4 mps 763 mmHg 30%
    14:00 +11°C° 0 mm 4 mps 763 mmHg 31%
    15:00 +11°C° 0 mm 4 mps 762 mmHg 32%
    16:00 +11°C° 0 mm 3 mps 762 mmHg 34%
    17:00 +11°C° 0 mm 3 mps 762 mmHg 36%
    18:00 +9°C° 0 mm 3 mps 762 mmHg 42%
    19:00 +7°C° 0 mm 3 mps 761 mmHg 48%
    20:00 +5°C° 0 mm 2 mps 761 mmHg 54%
    21:00 +4°C° 0 mm 3 mps 761 mmHg 55%
    22:00 +4°C° 0 mm 3 mps 761 mmHg 57%
    23:00 +3°C° 0 mm 3 mps 761 mmHg 58%

    7 April, Tuesday

    Time Temperature Precipitation Wind Pressure Humidity
    00:00 +3°C° 0 mm 3 mps 761 mmHg 60%
    01:00 +3°C° 0 mm 3 mps 761 mmHg 62%
    02:00 +2°C° 0 mm 3 mps 761 mmHg 63%
    03:00 +2°C° 0 mm 3 mps 761 mmHg 65%
    04:00 +1°C° 0 mm 3 mps 761 mmHg 67%
    05:00 +1°C° 0 mm 3 mps 762 mmHg 68%
    06:00 +2°C° 0 mm 3 mps 761 mmHg 64%
    07:00 +3°C° 0 mm 3 mps 761 mmHg 59%
    08:00 +5°C° 0 mm 4 mps 761 mmHg 55%
    09:00 +7°C° 0 mm 4 mps 761 mmHg 50%
    10:00 +10°C° 0 mm 4 mps 761 mmHg 46%
    11:00 +12°C° 0 mm 4 mps 761 mmHg 41%
    12:00 +13°C° 0 mm 4 mps 760 mmHg 40%
    13:00 +14°C° 0 mm 4 mps 760 mmHg 39%
    14:00 +17°C° 0 mm 4 mps 760 mmHg 37%
    15:00 +15°C° 0 mm 4 mps 760 mmHg 39%
    16:00 +15°C° 0 mm 4 mps 760 mmHg 40%
    17:00 +16°C° 0 mm 3 mps 759 mmHg 42%
    18:00 +13°C° 0 mm 3 mps 759 mmHg 48%
    19:00 +11°C° 0 mm 3 mps 759 mmHg 54%
    20:00 +9°C° 0 mm 3 mps 759 mmHg 61%
    21:00 +9°C° 0 mm 2 mps 759 mmHg 62%
    22:00 +8°C° 0 mm 2 mps 759 mmHg 63%
    23:00 +7°C° 0 mm 2 mps 759 mmHg 65%
    Show more